Sigfox identifier Datetime Temperature Humidity SNR
003BEC6A 2019-02-20 13:52:51 21.9 18 23.7
003BEC6A 2019-02-20 13:21:29 21.9 19 23.7
003BEC6A 2019-02-20 12:50:07 21.9 20 23.7
003BEC6A 2019-02-20 12:18:46 21.9 21 23.7
003BEC6A 2019-02-20 11:47:25 21.9 23 23.8
003BEC6A 2019-02-20 11:16:04 22 25 23.8
003BEC6A 2019-02-20 10:44:44 22 26 23.7
003BEC6A 2019-02-20 10:13:22 22.1 28 23.6
003BEC6A 2019-02-20 09:42:01 22.1 31 23.4
003BEC6A 2019-02-20 09:10:40 22 27 23.4
003BEC6A 2019-02-20 08:39:21 22 26 23.3
003BEC6A 2019-02-20 08:08:01 22 26 23.6
003BEC6A 2019-02-20 07:36:41 22 27 23.6
003BEC6A 2019-02-20 07:05:20 22 27 23.3
003BEC6A 2019-02-20 06:33:59 22 27 23.3
003BEC6A 2019-02-20 06:02:38 22.1 27 23.1
003BEC6A 2019-02-20 05:31:18 22.3 27 23.1
003BEC6A 2019-02-20 05:30:03 22.1 28 23.1
003BEC6A 2019-02-20 04:58:40 22.1 28 23.2
003BEC6A 2019-02-20 04:27:16 22.2 28 23.1
003BEC6A 2019-02-20 03:55:54 22.2 27 23.2
003BEC6A 2019-02-20 03:24:34 22.2 27 23.2
003BEC6A 2019-02-20 02:53:13 22.3 27 23.2
003BEC6A 2019-02-20 02:21:52 22.3 27 23.2
003BEC6A 2019-02-20 01:50:30 22.4 27 23.2
003BEC6A 2019-02-20 01:19:08 22.5 28 23.4
003BEC6A 2019-02-20 00:47:47 22.4 28 23.4
003BEC6A 2019-02-20 00:16:25 22.4 28 23.4
003BEC6A 2019-02-19 23:45:04 22.4 28 23.4
003BEC6A 2019-02-19 23:13:43 22.4 28 23.4
003BEC6A 2019-02-19 22:42:21 22.3 28 23.4
003BEC6A 2019-02-19 22:11:00 22.3 28 23.3
003BEC6A 2019-02-19 21:39:39 22.2 28 23.5
003BEC6A 2019-02-19 21:08:17 22.2 27 23.4
003BEC6A 2019-02-19 20:36:56 22.1 27 23.5
003BEC6A 2019-02-19 20:05:34 22.1 27 23.6
003BEC6A 2019-02-19 19:34:13 22.1 27 23.3
003BEC6A 2019-02-19 19:02:52 22 27 23.3
003BEC6A 2019-02-19 18:31:32 22 27 23.3
003BEC6A 2019-02-19 18:00:11 22 26 23.3
003BEC6A 2019-02-19 17:28:50 22 26 23.3
003BEC6A 2019-02-19 16:57:28 22 26 23.3
003BEC6A 2019-02-19 16:26:08 22 26 23.2
003BEC6A 2019-02-19 15:54:48 22 26 23.1
003BEC6A 2019-02-19 15:23:28 22.1 26 23
003BEC6A 2019-02-19 14:52:08 22.1 26 23
003BEC6A 2019-02-19 14:20:47 22.1 26 22.9
003BEC6A 2019-02-19 13:49:27 22.1 26 22.9
003BEC6A 2019-02-19 13:18:06 22.1 26 22.8
003BEC6A 2019-02-19 12:46:45 22.1 26 22.8
003BEC6A 2019-02-19 12:15:23 22.1 27 22.5
003BEC6A 2019-02-19 11:44:03 22.2 27 22.5
003BEC6A 2019-02-19 11:12:43 22.2 28 22.5
003BEC6A 2019-02-19 10:41:24 22.3 26 22.4
003BEC6A 2019-02-19 10:10:03 22.4 27 22.5
003BEC6A 2019-02-19 09:38:44 22.6 28 22.4
003BEC6A 2019-02-19 09:07:24 23.2 24 22.5
003BEC6A 2019-02-19 08:36:04 23.2 24 22.2
003BEC6A 2019-02-19 08:04:44 23.2 24 22.3
003BEC6A 2019-02-19 07:33:23 23.2 24 22.2
003BEC6A 2019-02-19 07:02:03 23.2 24 22.2
003BEC6A 2019-02-19 06:30:41 23.2 24 22.2
003BEC6A 2019-02-19 05:59:20 23.2 24 22.1
003BEC6A 2019-02-19 05:27:57 23.2 24 22.1
003BEC6A 2019-02-19 04:56:33 23.2 24 22
003BEC6A 2019-02-19 04:25:08 23.3 24 22.9
003BEC6A 2019-02-19 03:53:46 23.5 24 22.8
003BEC6A 2019-02-19 03:52:33 23.3 24 22.7
003BEC6A 2019-02-19 03:21:11 23.3 24 22.6
003BEC6A 2019-02-19 02:49:50 23.3 24 22.5
003BEC6A 2019-02-19 02:18:27 23.3 24 22.4
003BEC6A 2019-02-19 01:47:06 23.3 24 22.3
003BEC6A 2019-02-19 01:15:44 23.3 24 22.2
003BEC6A 2019-02-19 00:44:22 23.3 24 22.1
003BEC6A 2019-02-19 00:12:59 23.3 24 22
003BEC6A 2019-02-18 23:41:37 23.3 24 22.8
003BEC6A 2019-02-18 23:10:14 23.3 24 22.6
003BEC6A 2019-02-18 22:38:54 23.3 24 22.6
003BEC6A 2019-02-18 22:07:32 23.3 23 22.5
003BEC6A 2019-02-18 21:36:09 23.3 23 22.1
003BEC6A 2019-02-18 21:04:47 23.3 23 22.2
003BEC6A 2019-02-18 20:33:24 23.3 23 22.2
003BEC6A 2019-02-18 20:02:01 23.3 23 22.2
003BEC6A 2019-02-18 19:30:38 23.2 23 22.1
003BEC6A 2019-02-18 18:59:16 23.1 23 22
003BEC6A 2019-02-18 18:27:54 22.9 24 22.1
003BEC6A 2019-02-18 17:56:30 22.6 23 22.1
003BEC6A 2019-02-18 17:25:08 22.3 23 22.2
003BEC6A 2019-02-18 16:53:44 21.9 23 22.2
003BEC6A 2019-02-18 15:51:00 20.8 23 22.4
003BEC6A 2019-02-18 15:19:35 20.6 23 21.5
003BEC6A 2019-02-18 14:48:14 20.6 23 21.7
003BEC6A 2019-02-18 14:16:52 20.5 23 21.8
003BEC6A 2019-02-18 13:45:31 20.5 23 21.8
003BEC6A 2019-02-18 13:14:09 20.4 23 21.9
003BEC6A 2019-02-18 12:42:46 20.2 23 21.9
003BEC6A 2019-02-18 12:11:27 20.1 23 22
003BEC6A 2019-02-18 11:40:07 19.9 23 22.1
003BEC6A 2019-02-18 11:08:44 19.8 23 22.4
003BEC6A 2019-02-18 10:37:22 19.7 23 22.5
003BEC6A 2019-02-18 10:06:00 19.6 23 21.5
003BEC6A 2019-02-18 09:34:37 19.5 23 21.7
003BEC6A 2019-02-18 09:03:15 19.4 23 21.8
003BEC6A 2019-02-18 08:31:52 19.3 22 21.9
003BEC6A 2019-02-18 08:00:31 20.4 18 22.1
003BEC6A 2019-02-18 07:29:09 22.3 22 22.1
003BEC6A 2019-02-18 06:57:46 22.3 22 22.1
003BEC6A 2019-02-18 06:26:24 22.3 22 22.2
003BEC6A 2019-02-18 05:55:01 22.3 22 22.4
003BEC6A 2019-02-18 05:23:38 22.4 22 22.3
003BEC6A 2019-02-18 04:52:15 22.4 22 22.3
003BEC6A 2019-02-18 04:20:51 22.4 22 22.2
003BEC6A 2019-02-18 03:49:27 22.4 22 22.3
003BEC6A 2019-02-18 03:18:02 22.4 22 22.2
003BEC6A 2019-02-18 02:46:41 22.4 22 22.2
003BEC6A 2019-02-18 02:15:18 22.6 22 22.3
003BEC6A 2019-02-18 02:14:05 22.4 22 22.1
003BEC6A 2019-02-18 01:42:43 22.4 23 22.3
003BEC6A 2019-02-18 01:11:21 22.4 23 22.3
003BEC6A 2019-02-18 00:40:00 22.4 23 22.3
003BEC6A 2019-02-18 00:08:37 22.3 23 22.4
003BEC6A 2019-02-17 23:37:15 22.3 23 22.4
003BEC6A 2019-02-17 23:05:54 22.3 23 22.5
003BEC6A 2019-02-17 22:34:32 22.3 23 22.4
003BEC6A 2019-02-17 22:03:13 22.3 23 22.4
003BEC6A 2019-02-17 21:31:53 22.3 23 22.5
003BEC6A 2019-02-17 21:00:32 22.2 23 22.4
003BEC6A 2019-02-17 20:29:13 22.2 24 22.4
003BEC6A 2019-02-17 19:57:54 22.2 24 22.4
003BEC6A 2019-02-17 19:26:30 22.2 24 22.5
003BEC6A 2019-02-17 18:55:10 22.2 24 22.6
003BEC6A 2019-02-17 18:23:49 22.2 24 22.6
003BEC6A 2019-02-17 17:52:30 22.3 24 22.6
003BEC6A 2019-02-17 17:21:09 22.3 25 22.6
003BEC6A 2019-02-17 16:49:48 22.3 25 22.6
003BEC6A 2019-02-17 16:18:28 22.3 25 22.6
003BEC6A 2019-02-17 15:47:06 22.3 25 22.5
003BEC6A 2019-02-17 15:15:42 22.3 24 22.4
003BEC6A 2019-02-17 14:44:20 22.2 24 22.5
003BEC6A 2019-02-17 14:12:58 22.3 25 22.5
003BEC6A 2019-02-17 13:41:37 22.2 25 22.4
003BEC6A 2019-02-17 13:10:14 22.2 25 22.5
003BEC6A 2019-02-17 12:38:53 22.1 25 22.3
003BEC6A 2019-02-17 12:07:31 22.1 25 22.3
003BEC6A 2019-02-17 11:36:09 22.1 26 22.4
003BEC6A 2019-02-17 11:04:47 22.1 26 22.4
003BEC6A 2019-02-17 10:33:26 22.1 26 22.3
003BEC6A 2019-02-17 10:02:03 22.1 26 22.3
003BEC6A 2019-02-17 09:30:42 22.1 26 22.2
003BEC6A 2019-02-17 08:59:21 22.1 26 22.3
003BEC6A 2019-02-17 08:27:59 22.2 26 22.2
003BEC6A 2019-02-17 07:56:37 22.2 26 22.1
003BEC6A 2019-02-17 07:25:16 22.2 26 22.1
003BEC6A 2019-02-17 06:53:54 22.2 26 22.1
003BEC6A 2019-02-17 06:22:31 22.2 26 22.1
003BEC6A 2019-02-17 05:51:09 22.2 26 22
003BEC6A 2019-02-17 05:19:47 22.2 26 21.9
003BEC6A 2019-02-17 04:48:25 22.3 27 21.9
003BEC6A 2019-02-17 04:17:04 22.3 27 21.8
003BEC6A 2019-02-17 03:45:41 22.2 27 22
003BEC6A 2019-02-17 03:14:20 22.3 27 22
003BEC6A 2019-02-17 02:42:58 22.3 27 22
003BEC6A 2019-02-17 02:11:37 22.3 27 21.8
003BEC6A 2019-02-17 01:40:15 22.3 27 21.7
003BEC6A 2019-02-17 01:08:53 22.3 27 21.7
003BEC6A 2019-02-17 00:37:30 22.5 27 21.9
003BEC6A 2019-02-17 00:36:17 22.3 27 21.9
003BEC6A 2019-02-17 00:04:53 22.3 27 22
003BEC6A 2019-02-16 23:33:31 22.3 27 22
003BEC6A 2019-02-16 23:02:09 22.3 27 22
003BEC6A 2019-02-16 22:30:46 22.2 27 22
003BEC6A 2019-02-16 21:59:24 22.3 27 21.9
003BEC6A 2019-02-16 21:28:01 22.3 27 21.8
003BEC6A 2019-02-16 20:56:38 22.2 27 21.8
003BEC6A 2019-02-16 20:25:15 22.3 27 21.8
003BEC6A 2019-02-16 19:53:52 22.2 27 21.9
003BEC6A 2019-02-16 19:22:30 22.3 27 22
003BEC6A 2019-02-16 18:51:06 22.2 27 22.1
003BEC6A 2019-02-16 18:19:42 22.2 27 22.1
003BEC6A 2019-02-16 17:48:18 22.2 27 22.1
003BEC6A 2019-02-16 17:16:55 22.2 27 22
003BEC6A 2019-02-16 16:45:31 22.2 27 22.1
003BEC6A 2019-02-16 16:14:08 22.2 27 22
003BEC6A 2019-02-16 15:42:46 22.2 27 22.1
003BEC6A 2019-02-16 15:11:24 22.2 27 21.9
003BEC6A 2019-02-16 14:40:01 22.2 27 22
003BEC6A 2019-02-16 14:08:39 22.2 27 22
003BEC6A 2019-02-16 13:37:16 22.2 27 22.2
003BEC6A 2019-02-16 13:05:54 22.2 27 22.2
003BEC6A 2019-02-16 12:34:33 22.2 27 22.1
003BEC6A 2019-02-16 12:03:10 22.2 27 22
003BEC6A 2019-02-16 11:31:47 22.3 27 22
003BEC6A 2019-02-16 11:00:24 22.3 27 22.2
003BEC6A 2019-02-16 10:29:01 22.3 27 22.2
003BEC6A 2019-02-16 09:57:38 22.3 27 22.3
003BEC6A 2019-02-16 09:26:14 22.3 27 22.2
003BEC6A 2019-02-16 08:54:54 22.4 27 22.2
003BEC6A 2019-02-16 08:23:30 22.4 27 22.2
003BEC6A 2019-02-16 07:52:07 22.4 27 22.3
003BEC6A 2019-02-16 07:20:43 22.4 27 22.1
003BEC6A 2019-02-16 06:49:19 22.4 27 22.1
003BEC6A 2019-02-16 06:17:56 22.4 27 21.9
003BEC6A 2019-02-16 05:46:32 22.4 27 21.8
003BEC6A 2019-02-16 05:15:11 22.4 27 21.8
003BEC6A 2019-02-16 04:43:49 22.5 27 21.8
003BEC6A 2019-02-16 04:12:27 22.5 27 21.8
003BEC6A 2019-02-16 03:41:04 22.4 27 21.7
003BEC6A 2019-02-16 03:09:42 22.4 27 21.9
003BEC6A 2019-02-16 02:38:21 22.4 27 22
003BEC6A 2019-02-16 02:06:59 22.4 27 22
003BEC6A 2019-02-16 01:35:40 22.4 27 21.9
003BEC6A 2019-02-16 01:04:15 22.4 27 22.1
003BEC6A 2019-02-16 00:32:52 22.4 27 22.2
003BEC6A 2019-02-16 00:01:29 22.4 27 22.2
003BEC6A 2019-02-15 23:30:06 22.4 27 22.2
003BEC6A 2019-02-15 22:58:45 22.6 27 22.2
003BEC6A 2019-02-15 22:57:32 22.4 27 22.1
003BEC6A 2019-02-15 22:26:10 22.4 27 22.2
003BEC6A 2019-02-15 21:54:48 22.4 27 22
003BEC6A 2019-02-15 21:23:28 22.4 27 22
003BEC6A 2019-02-15 20:52:08 22.4 27 22.1
003BEC6A 2019-02-15 20:20:44 22.3 27 22.1
003BEC6A 2019-02-15 19:49:24 22.3 27 22.1
003BEC6A 2019-02-15 19:18:05 22.3 27 22.1
003BEC6A 2019-02-15 18:46:42 22.3 27 22.3
003BEC6A 2019-02-15 18:15:24 22.3 27 22.4
003BEC6A 2019-02-15 17:44:01 22.3 27 22.6
003BEC6A 2019-02-15 17:12:40 22.3 27 22.7
003BEC6A 2019-02-15 16:41:17 22.3 27 22.7
003BEC6A 2019-02-15 16:09:58 22.3 27 22.8
003BEC6A 2019-02-15 15:38:37 22.3 27 22.8
003BEC6A 2019-02-15 15:07:17 22.3 27 22.9
003BEC6A 2019-02-15 14:35:57 22.3 27 22.8
003BEC6A 2019-02-15 14:04:36 22.3 27 22.7
003BEC6A 2019-02-15 13:33:19 22.3 27 22.7
003BEC6A 2019-02-15 13:01:55 22.3 27 22.7
003BEC6A 2019-02-15 12:30:33 22.2 27 22.4
003BEC6A 2019-02-15 11:59:12 22.2 28 22.3
003BEC6A 2019-02-15 11:27:51 22.2 28 22.3
003BEC6A 2019-02-15 10:56:30 22.2 28 22.4
003BEC6A 2019-02-15 10:25:10 22.2 28 22.5
003BEC6A 2019-02-15 09:53:49 22.3 28 22.5
003BEC6A 2019-02-15 09:22:27 22.2 28 22.5
003BEC6A 2019-02-15 08:51:05 22.2 28 22.5
003BEC6A 2019-02-15 08:19:42 22.2 28 22.4
003BEC6A 2019-02-15 07:48:21 22.2 28 22.4
003BEC6A 2019-02-15 07:16:59 22.2 28 22.3
003BEC6A 2019-02-15 06:45:36 22.2 29 22.4
003BEC6A 2019-02-15 06:14:17 22.2 29 22.3
003BEC6A 2019-02-15 05:42:56 22.3 29 22
003BEC6A 2019-02-15 05:11:36 22.3 29 21.9
003BEC6A 2019-02-15 04:40:16 22.3 29 21.7
003BEC6A 2019-02-15 04:08:54 22.3 29 21.7
003BEC6A 2019-02-15 03:37:32 22.3 29 21.5
003BEC6A 2019-02-15 03:06:11 22.2 30 21.4
003BEC6A 2019-02-15 02:34:49 22.3 30 21.2
003BEC6A 2019-02-15 02:03:26 22.2 30 21.2
003BEC6A 2019-02-15 01:32:05 22.2 30 21.1
003BEC6A 2019-02-15 01:00:46 22.1 30 21.1
003BEC6A 2019-02-15 00:29:25 22 30 21
003BEC6A 2019-02-14 23:58:05 21.8 30 21
003BEC6A 2019-02-14 23:26:44 21.7 30 20.9
003BEC6A 2019-02-14 22:55:24 21.5 30 20.9
003BEC6A 2019-02-14 22:24:03 21.3 30 20.6
003BEC6A 2019-02-14 21:52:41 21 31 20.4
003BEC6A 2019-02-14 21:21:19 20.9 31 20.4
003BEC6A 2019-02-14 21:20:07 20.6 31 20.3
003BEC6A 2019-02-14 20:48:45 20.2 32 20.2
003BEC6A 2019-02-14 20:17:24 19.6 32 20
003BEC6A 2019-02-14 19:46:03 18.7 32 20.1
003BEC6A 2019-02-14 19:14:42 17.6 30 20.1
003BEC6A 2019-02-14 18:43:19 18.9 24 20.3
003BEC6A 2019-02-14 17:09:12 22.1 25 20.3
003BEC6A 2019-02-14 16:37:48 22 25 20.5
003BEC6A 2019-02-14 16:06:25 21.8 24 20.8
003BEC6A 2019-02-14 15:35:01 21.8 24 20.6
003BEC6A 2019-02-14 15:03:37 21.7 24 20.7
003BEC6A 2019-02-14 14:32:14 21.6 24 20.6
003BEC6A 2019-02-14 14:00:52 21.5 24 20.9
003BEC6A 2019-02-14 13:29:29 21.4 24 20.9
003BEC6A 2019-02-14 12:58:06 21.3 24 21.2
003BEC6A 2019-02-14 12:26:42 21.2 24 21.3
003BEC6A 2019-02-14 11:55:20 21.1 24 21.3
003BEC6A 2019-02-14 11:23:58 21 24 21.5
003BEC6A 2019-02-14 10:52:34 20.9 25 21.6
003BEC6A 2019-02-14 10:21:14 20.8 24 21.7
003BEC6A 2019-02-14 09:49:54 20.8 24 22.6
003BEC6A 2019-02-14 09:18:32 20.7 25 22.7
003BEC6A 2019-02-14 08:47:11 20.7 24 22.7
003BEC6A 2019-02-14 08:15:49 20.7 25 22.7
003BEC6A 2019-02-14 07:44:27 20.7 25 22.6
003BEC6A 2019-02-14 07:13:07 20.8 25 22.6
003BEC6A 2019-02-14 06:41:45 20.8 25 22.6
003BEC6A 2019-02-14 06:10:23 20.8 25 22.6
003BEC6A 2019-02-14 05:39:03 20.8 25 22.5
003BEC6A 2019-02-14 05:07:42 20.8 25 22.5
003BEC6A 2019-02-14 04:36:20 20.8 25 22.4
003BEC6A 2019-02-14 04:04:59 20.8 25 22.2
003BEC6A 2019-02-14 03:33:39 20.8 25 22.3
003BEC6A 2019-02-14 03:02:18 20.8 25 22.2
003BEC6A 2019-02-14 02:30:58 20.8 25 22.4
003BEC6A 2019-02-14 01:59:37 20.8 25 22.3
003BEC6A 2019-02-14 01:28:15 20.8 25 22.3
003BEC6A 2019-02-14 00:56:52 20.8 25 22.1
003BEC6A 2019-02-14 00:25:32 20.9 25 22.1
003BEC6A 2019-02-13 23:54:09 20.9 25 22
003BEC6A 2019-02-13 23:22:48 20.9 25 21.9
003BEC6A 2019-02-13 22:51:25 20.9 25 21.8
003BEC6A 2019-02-13 22:20:04 21 25 21.6
003BEC6A 2019-02-13 21:48:40 21 25 21.5
003BEC6A 2019-02-13 21:17:18 21.1 25 21.4
003BEC6A 2019-02-13 20:45:54 21.1 25 20.1
003BEC6A 2019-02-13 20:14:30 21.2 25 20
003BEC6A 2019-02-13 19:43:08 21.5 25 20.1
003BEC6A 2019-02-13 19:41:55 21.2 25 20.2
003BEC6A 2019-02-13 19:10:32 21.3 25 20.1
003BEC6A 2019-02-13 18:39:08 21.3 26 20.1
003BEC6A 2019-02-13 18:07:44 21.3 26 20.1
003BEC6A 2019-02-13 17:36:22 21.3 26 20.1
003BEC6A 2019-02-13 17:05:01 21.2 26 20.1
003BEC6A 2019-02-13 16:33:41 21.2 25 20.3
003BEC6A 2019-02-13 16:02:20 21.1 25 20.4
003BEC6A 2019-02-13 15:30:58 21.1 25 20.6
003BEC6A 2019-02-13 14:59:36 21.1 25 20.5
003BEC6A 2019-02-13 14:28:12 21.1 24 20.5
003BEC6A 2019-02-13 13:56:49 21.1 24 20.4
003BEC6A 2019-02-13 13:25:27 21.1 24 20.6
003BEC6A 2019-02-13 12:54:07 21 24 20.6
003BEC6A 2019-02-13 12:22:45 21 24 20.6
003BEC6A 2019-02-13 11:51:22 20.9 24 20.5
003BEC6A 2019-02-13 11:20:00 20.9 24 20.4
003BEC6A 2019-02-13 10:48:38 20.8 23 20.5
003BEC6A 2019-02-13 10:17:16 20.8 23 20.5
003BEC6A 2019-02-13 09:45:53 20.7 22 20.4
003BEC6A 2019-02-13 09:14:32 20.7 22 20.6
003BEC6A 2019-02-13 08:43:11 20.7 21 20.4
003BEC6A 2019-02-13 08:11:50 20.7 20 20.4
003BEC6A 2019-02-13 07:40:33 20.7 20 20.4
003BEC6A 2019-02-13 07:09:06 20.7 20 20.3
003BEC6A 2019-02-13 06:37:47 20.7 20 20.3
003BEC6A 2019-02-13 06:06:26 20.7 20 20.2
003BEC6A 2019-02-13 05:35:04 20.7 20 20.2
003BEC6A 2019-02-13 05:03:44 20.7 20 20
003BEC6A 2019-02-13 04:32:23 20.8 20 19.9
003BEC6A 2019-02-13 04:01:03 20.8 20 19.7
003BEC6A 2019-02-13 03:29:41 20.8 20 19.3
003BEC6A 2019-02-13 02:58:19 20.8 20 19.1
003BEC6A 2019-02-13 02:26:57 20.8 19 18.8
003BEC6A 2019-02-13 01:55:37 20.8 19 18.6
003BEC6A 2019-02-13 01:24:14 20.8 19 18.1
003BEC6A 2019-02-13 00:52:52 20.9 20 17.9
003BEC6A 2019-02-13 00:21:30 20.9 20 17.6
003BEC6A 2019-02-12 23:50:08 20.9 20 17.3
003BEC6A 2019-02-12 23:18:46 21 20 17.3
003BEC6A 2019-02-12 22:47:24 21 20 17.2
003BEC6A 2019-02-12 22:16:04 21.1 20 17
003BEC6A 2019-02-12 21:44:44 21.2 21 16.6
003BEC6A 2019-02-12 21:13:24 21.3 21 16.5
003BEC6A 2019-02-12 20:42:03 21.3 21 16.6
003BEC6A 2019-02-12 20:10:42 21.4 21 16.4
003BEC6A 2019-02-12 19:39:21 21.5 21 16.3
003BEC6A 2019-02-12 19:08:00 21.5 20 16.1
003BEC6A 2019-02-12 18:36:39 21.6 20 15.8
003BEC6A 2019-02-12 18:05:17 21.9 20 15.8
003BEC6A 2019-02-12 18:04:04 21.7 20 15.3
003BEC6A 2019-02-12 17:32:43 21.7 20 15.3
003BEC6A 2019-02-12 17:01:24 21.9 20 15
003BEC6A 2019-02-12 16:30:02 21.9 20 15
003BEC6A 2019-02-12 15:58:38 21.9 20 15
003BEC6A 2019-02-12 15:27:16 21.8 21 15
003BEC6A 2019-02-12 14:55:56 21.6 21 15.2
003BEC6A 2019-02-12 14:24:35 21.4 21 15.1
003BEC6A 2019-02-12 13:53:11 21.2 21 15
003BEC6A 2019-02-12 13:21:50 21.2 21 15.1
003BEC6A 2019-02-12 12:50:31 21.2 22 15.1
003BEC6A 2019-02-12 12:19:08 21.1 22 15.1
003BEC6A 2019-02-12 11:47:47 21.1 22 15.3
003BEC6A 2019-02-12 11:16:25 21 23 15.2
003BEC6A 2019-02-12 10:45:03 21 23 15.3
003BEC6A 2019-02-12 10:13:40 20.9 23 14.9
003BEC6A 2019-02-12 09:42:19 20.9 24 14.6
003BEC6A 2019-02-12 09:11:02 20.8 24 14.4
003BEC6A 2019-02-12 08:39:37 20.7 24 13.7
003BEC6A 2019-02-12 08:08:19 20.8 25 13.6
003BEC6A 2019-02-12 07:36:53 20.8 26 13.8
003BEC6A 2019-02-12 07:05:32 20.8 26 14.5
003BEC6A 2019-02-12 06:34:08 20.8 26 14.6
003BEC6A 2019-02-12 06:02:45 20.8 27 14.7
003BEC6A 2019-02-12 05:31:23 20.8 27 14.6
003BEC6A 2019-02-12 05:00:00 20.8 27 14.8
003BEC6A 2019-02-12 04:28:37 20.8 27 14.8
003BEC6A 2019-02-12 03:57:14 20.8 27 14.6
003BEC6A 2019-02-12 03:25:51 20.9 27 14.7
003BEC6A 2019-02-12 02:23:03 20.9 27 14.9
003BEC6A 2019-02-12 01:51:37 20.9 27 14.9
003BEC6A 2019-02-12 01:20:14 20.9 27 15.1
003BEC6A 2019-02-12 00:48:53 20.9 27 15.2
003BEC6A 2019-02-12 00:17:29 21 27 14.6
003BEC6A 2019-02-11 23:46:06 21 27 14.9
003BEC6A 2019-02-11 23:14:44 21.1 27 15.2
003BEC6A 2019-02-11 22:43:23 21.1 27 15.1
003BEC6A 2019-02-11 22:12:03 21.2 27 15.4
003BEC6A 2019-02-11 21:09:19 21.3 27 15.2
003BEC6A 2019-02-11 20:37:54 21.4 27 15.5
003BEC6A 2019-02-11 19:35:10 21.6 27 16.1
003BEC6A 2019-02-11 19:03:48 21.7 27 16.8
003BEC6A 2019-02-11 18:32:23 21.8 27 17.7
003BEC6A 2019-02-11 18:01:01 22 28 18.7
003BEC6A 2019-02-11 17:29:37 22.1 28 18.7
003BEC6A 2019-02-11 16:58:13 22.1 28 13.5
003BEC6A 2019-02-11 16:26:48 22.1 32 0